Torna al catalogo

STARLINK-34657

AttivoComunicazioniVLEO
NORAD 64775·PAYLOAD·🇺🇸 United States

Lanciato Jul 8, 2025 da Cape Canaveral Space Force Station

Loading…

Prossimi Passaggi (prossime 24 ore)

TLE

AggiornatoSource: CelesTrak SupGP

Epoca: Sep 14, 2026, 20:54 UTC

1 64775C 25147W   26257.87131944 -.00016323  00000+0 -48240-3 0  2571
2 64775  53.1576  80.0693 0001270  88.8638 213.6261 15.34390138    14

Traccia STARLINK-34657 in tempo reale con AllMySat

Download on the App Store